This is the latest recevied weather packets stored in our database for station/object N3LF. If no packets are shown the sender has not sent any weather packets the latest 10 day(s).
| Time | Temp. | Humidity | Pressure | Rain* | Wind** | Luminosity | Snow |
|---|---|---|---|---|---|---|---|
| 1777053156 | 24.44° C | 64% | 1012.3 hPa | 0 mm | - | 216 W/m² | - |
| 1777052853 | 24.44° C | 63% | 1012.5 hPa | 0 mm | - | 203 W/m² | - |
| 1777052553 | 25° C | 62% | 1012.8 hPa | 0 mm | - | 266 W/m² | - |
| 1777052250 | 25° C | 65% | 1012.7 hPa | 0 mm | - | 312 W/m² | - |
| 1777051945 | 25° C | 64% | 1012.7 hPa | 0 mm | - | 298 W/m² | - |
| 1777051643 | 24.44° C | 65% | 1012.8 hPa | 0 mm | - | 265 W/m² | - |
| 1777051338 | 24.44° C | 65% | 1012.9 hPa | 0 mm | - | 289 W/m² | - |
| 1777051034 | 24.44° C | 67% | 1013.1 hPa | 0 mm | - | 303 W/m² | - |
| 1777050730 | 25° C | 64% | 1013.1 hPa | 0 mm | - | 240 W/m² | - |
| 1777050426 | 24.44° C | 66% | 1013.1 hPa | 0 mm | - | 242 W/m² | - |
| 1777050120 | 24.44° C | 67% | 1013.2 hPa | 0 mm | - | 271 W/m² | - |
| 1777049815 | 24.44° C | 66% | 1013.2 hPa | 0 mm | - | 363 W/m² | - |
| 1777049511 | 24.44° C | 68% | 1013.3 hPa | 0 mm | - | 318 W/m² | - |
| 1777049210 | 24.44° C | 70% | 1013.4 hPa | 0 mm | - | 274 W/m² | - |
| 1777048910 | 24.44° C | 68% | 1013.3 hPa | 0 mm | - | 337 W/m² | - |
| 1777048605 | 24.44° C | 72% | 1013.5 hPa | 0 mm | - | 361 W/m² | - |
| 1777048300 | 23.89° C | 71% | 1013.7 hPa | 0 mm | - | 282 W/m² | - |
| 1777047995 | 23.89° C | 70% | 1013.6 hPa | 0 mm | - | 297 W/m² | - |
| 1777047691 | 23.89° C | 71% | 1013.7 hPa | 0 mm | - | 241 W/m² | - |
| 1777047387 | 23.89° C | 71% | 1013.7 hPa | 0 mm | - | 246 W/m² | - |
| 1777047082 | 24.44° C | 69% | 1013.7 hPa | 0 mm | - | 318 W/m² | - |
| 1777046781 | 24.44° C | 69% | 1013.6 hPa | 0 mm | - | 283 W/m² | - |
| 1777046476 | 24.44° C | 69% | 1013.5 hPa | 0 mm | - | 299 W/m² | - |
| 1777046171 | 24.44° C | 70% | 1013.6 hPa | 0 mm | - | 385 W/m² | - |
| 1777045868 | 23.89° C | 70% | 1013.6 hPa | 0 mm | - | 277 W/m² | - |
* Rain latest hour (hover to see other rain measurements)
** Current wind speed in m/s (hover to see current wind gust speed)